Edinburg, TX

11:34 PM CDT on August 31, 2016 (GMT -0500)
Edinburg

Weather History for KEBG - May, 2013

Change the Weather History Date:

Thursday, May 2, 2013

  Actual Average (KMFE) Record (KMFE)
Temperature  
Mean Temperature 76 °F 79 °F  
Max Temperature 88 °F 89 °F 105 °F (1984)
Min Temperature 64 °F 69 °F 54 °F (1976)
Degree Days  
Heating Degree Days 0 0  
Month to date heating degree days 0  
Since 1 July heating degree days 579  
Cooling Degree Days 12 14  
Month to date cooling degree days 14  
Year to date cooling degree days 745  
Growing Degree Days 26 (Base 50)    
Moisture  
Dew Point 61 °F    
Average Humidity 59    
Maximum Humidity 85    
Minimum Humidity 29    
Precipitation  
Precipitation 0.00 in 0.06 in 1.64 in (1972)
Month to date precipitation 0.06  
Year to date precipitation 4.59  
Sea Level Pressure  
Sea Level Pressure 30.02 in    
Wind  
Wind Speed 11 mph (NNE)    
Max Wind Speed 25 mph    
Max Gust Speed 36 mph    
Visibility 6 miles    
Events      
T = Trace of Precipitation, MM = Missing Value Source: NWS Daily Summary

Daily Weather History Graph

Daily Weather History Graph

Search for Another Location

Airport or City:

Trip Planner

Search our weather history database for the weather conditions in past years. The results will help you decide how hot, cold, wet, or windy it might be!

Date:

Astronomy

May. 02, 2013 Rise Set
Actual Time 6:53 AM CDT 8:05 PM CDT
Civil Twilight 6:29 AM CDT 8:29 PM CDT
Nautical Twilight 6:00 AM CDT 8:58 PM CDT
Astronomical Twilight 5:30 AM CDT 9:28 PM CDT
Moon 2:00 AM CDT (5/2) 1:35 PM CDT (5/2)
Length of Visible Light 14h 00m
Length of Day
13h 11m
Waning Gibbous, 47% of the Moon is Illuminated
May 2
Waning Gibbous
May 9
New
May 17
First Quarter
May 24
Full
May 31
Last Quarter

Hourly Weather History & Observations

Time (CDT) Temp. Heat Index Dew Point Humidity Pressure Visibility Wind Dir Wind Speed Gust Speed Precip Events Conditions
12:15 AM 76.6 °F - 70.7 °F 82% 29.87 in 5.0 mi SE 5.8 mph - N/A   Haze
12:35 AM 77.2 °F - 70.2 °F 79% 29.88 in 5.0 mi ESE 5.8 mph - N/A   Haze
12:55 AM 77.5 °F - 70.0 °F 77% 29.89 in 5.0 mi East 5.8 mph - N/A   Haze
1:15 AM 77.5 °F - 70.5 °F 79% 29.87 in 5.0 mi East 5.8 mph - N/A   Haze
1:35 AM 77.4 °F - 70.0 °F 78% 29.87 in 5.0 mi ESE 9.2 mph - N/A   Haze
1:55 AM 77.4 °F - 70.7 °F 80% 29.86 in 5.0 mi East 10.4 mph - N/A   Haze
2:15 AM 77.4 °F - 70.9 °F 80% 29.87 in 5.0 mi ESE 6.9 mph - N/A   Haze
2:35 AM 77.2 °F - 70.7 °F 80% 29.87 in 7.0 mi East 6.9 mph - N/A   Overcast
2:55 AM 77.0 °F - 70.7 °F 81% 29.86 in 5.0 mi East 6.9 mph - N/A   Haze
3:15 AM 76.6 °F - 71.1 °F 83% 29.87 in 5.0 mi East 8.1 mph - N/A   Haze
3:35 AM 76.6 °F - 71.1 °F 83% 29.89 in 5.0 mi ENE 9.2 mph - N/A   Haze
3:55 AM 76.6 °F - 70.9 °F 82% 29.91 in 5.0 mi NE 10.4 mph - N/A   Haze
4:15 AM 76.8 °F - 70.7 °F 81% 29.93 in 7.0 mi NE 10.4 mph - N/A   Overcast
4:35 AM 76.6 °F - 70.3 °F 81% 29.94 in 5.0 mi NE 9.2 mph - N/A   Haze
4:55 AM 76.3 °F - 70.0 °F 81% 29.93 in 7.0 mi ENE 9.2 mph - N/A   Overcast
5:15 AM 76.1 °F - 69.8 °F 81% 29.93 in 5.0 mi ENE 6.9 mph - N/A   Haze
5:35 AM 75.2 °F - 69.4 °F 82% 29.94 in 5.0 mi ENE 4.6 mph - N/A   Haze
5:55 AM 75.2 °F - 69.8 °F 83% 29.96 in 5.0 mi NNE 8.1 mph - N/A   Haze
6:15 AM 74.3 °F - 69.3 °F 84% 29.94 in 5.0 mi NE 5.8 mph - N/A   Haze
6:35 AM 74.7 °F - 69.8 °F 85% 29.94 in 5.0 mi NNE 6.9 mph - N/A   Haze
6:55 AM 74.7 °F - 69.4 °F 84% 29.94 in 5.0 mi NE 5.8 mph - N/A   Haze
7:15 AM 74.3 °F - 69.1 °F 84% 29.94 in 4.0 mi ENE 4.6 mph - N/A   Haze
7:35 AM 74.3 °F - 69.3 °F 84% 29.95 in 4.0 mi NE 4.6 mph - N/A   Haze
7:55 AM 75.2 °F - 69.6 °F 83% 29.95 in 4.0 mi NE 4.6 mph - N/A   Haze
8:15 AM 75.7 °F - 69.3 °F 80% 29.96 in 4.0 mi Calm Calm - N/A   Haze
8:35 AM 77.0 °F - 69.1 °F 76% 29.97 in 5.0 mi East 3.5 mph - N/A   Haze
8:55 AM 77.4 °F - 69.1 °F 76% 29.96 in 5.0 mi SE 3.5 mph - N/A   Haze
9:15 AM 78.8 °F - 68.5 °F 71% 29.96 in 5.0 mi SSE 4.6 mph - N/A   Haze
9:35 AM 80.2 °F 82.8 °F 68.0 °F 66% 29.98 in 5.0 mi East 3.5 mph - N/A   Haze
9:55 AM 81.1 °F 83.4 °F 66.4 °F 61% 29.98 in 7.0 mi SE 9.2 mph - N/A   Clear
10:15 AM 82.4 °F 84.6 °F 66.4 °F 58% 29.96 in 5.0 mi South 12.7 mph 16.1 mph N/A   Haze
10:35 AM 82.8 °F 84.5 °F 65.3 °F 55% 29.99 in 5.0 mi South 5.8 mph - N/A   Haze
10:55 AM 83.5 °F 85.1 °F 64.8 °F 53% 30.02 in 5.0 mi Calm Calm - N/A   Haze
11:15 AM 84.9 °F 86.6 °F 64.9 °F 51% 30.04 in 5.0 mi North 5.8 mph - N/A   Haze
11:35 AM 85.3 °F 86.6 °F 64.4 °F 49% 30.05 in 5.0 mi North 11.5 mph - N/A   Haze
11:55 AM 86.7 °F 87.5 °F 63.3 °F 45% 30.05 in 7.0 mi North 8.1 mph 16.1 mph N/A   Mostly Cloudy
12:15 PM 85.8 °F 86.8 °F 63.3 °F 47% 30.04 in 5.0 mi North 9.2 mph - N/A   Haze
12:55 PM 83.7 °F 83.9 °F 60.6 °F 46% 30.04 in 5.0 mi NNE 24.2 mph 31.1 mph N/A   Haze
1:15 PM 86.2 °F 84.7 °F 55.6 °F 35% 30.03 in 7.0 mi NNE 19.6 mph 26.5 mph N/A   Scattered Clouds
1:35 PM 86.5 °F 84.6 °F 53.4 °F 32% 30.03 in 7.0 mi NNE 16.1 mph 24.2 mph N/A   Mostly Cloudy
1:55 PM 88.7 °F 86.3 °F 53.1 °F 29% 30.02 in 5.0 mi North 21.9 mph 28.8 mph N/A   Haze
2:15 PM 87.1 °F 85.1 °F 53.6 °F 32% 30.02 in 7.0 mi North 21.9 mph 26.5 mph N/A   Mostly Cloudy
2:55 PM 85.1 °F 83.5 °F 53.4 °F 34% 30.02 in 7.0 mi North 20.7 mph 27.6 mph N/A   Overcast
3:15 PM 85.8 °F 84.0 °F 53.2 °F 33% 30.03 in 5.0 mi NNW 25.3 mph 29.9 mph N/A   Haze
3:35 PM 86.2 °F 84.5 °F 54.5 °F 34% 30.03 in 5.0 mi North 20.7 mph 29.9 mph N/A   Haze
3:55 PM 84.7 °F 83.6 °F 55.9 °F 37% 30.03 in 5.0 mi NNE 25.3 mph 35.7 mph N/A   Haze
4:15 PM 83.8 °F 82.7 °F 55.2 °F 37% 30.04 in 7.0 mi North 19.6 mph 26.5 mph N/A   Mostly Cloudy
4:35 PM 83.8 °F 82.7 °F 54.9 °F 37% 30.04 in 7.0 mi North 18.4 mph 27.6 mph N/A   Scattered Clouds
4:55 PM 82.8 °F 81.7 °F 54.3 °F 37% 30.05 in 5.0 mi North 19.6 mph 28.8 mph N/A   Haze
5:15 PM 81.7 °F 81.0 °F 53.4 °F 38% 30.05 in 5.0 mi North 23.0 mph 28.8 mph N/A   Haze
5:35 PM 79.9 °F - 53.6 °F 40% 30.07 in 7.0 mi NNW 18.4 mph 26.5 mph N/A   Overcast
5:55 PM 78.6 °F - 53.1 °F 41% 30.08 in 7.0 mi NNW 20.7 mph 26.5 mph N/A   Overcast
6:15 PM 77.4 °F - 52.9 °F 42% 30.07 in 5.0 mi NNW 21.9 mph 26.5 mph N/A   Haze
6:35 PM 76.5 °F - 53.4 °F 45% 30.08 in 7.0 mi North 17.3 mph 27.6 mph N/A   Overcast
6:55 PM 76.3 °F - 52.9 °F 44% 30.08 in 7.0 mi North 19.6 mph 23.0 mph N/A   Overcast
7:15 PM 75.4 °F - 52.7 °F 45% 30.09 in 7.0 mi North 21.9 mph 26.5 mph N/A   Overcast
7:35 PM 74.3 °F - 52.2 °F 46% 30.11 in 7.0 mi North 21.9 mph 26.5 mph N/A   Overcast
7:55 PM 73.8 °F - 52.0 °F 46% 30.12 in 5.0 mi North 17.3 mph 25.3 mph N/A   Haze
8:15 PM 72.7 °F - 50.2 °F 45% 30.14 in 7.0 mi NNW 20.7 mph 29.9 mph N/A   Overcast
8:35 PM 71.8 °F - 49.3 °F 45% 30.16 in 7.0 mi NNW 20.7 mph 24.2 mph N/A   Overcast
8:55 PM 70.9 °F - 48.6 °F 45% 30.18 in 7.0 mi NNW 21.9 mph 29.9 mph N/A   Overcast
9:15 PM 70.7 °F - 48.4 °F 45% 30.19 in 7.0 mi NNW 24.2 mph 29.9 mph N/A   Overcast
9:35 PM 69.8 °F - 48.2 °F 46% 30.21 in 7.0 mi NW 20.7 mph 26.5 mph N/A   Overcast
9:55 PM 69.3 °F - 47.5 °F 46% 30.22 in 5.0 mi NNW 25.3 mph 32.2 mph N/A   Haze
10:15 PM 68.4 °F - 47.1 °F 47% 30.23 in 5.0 mi NNW 24.2 mph 29.9 mph N/A   Haze
10:35 PM 68.0 °F - 46.4 °F 46% 30.25 in 7.0 mi NNW 23.0 mph 27.6 mph N/A   Overcast
10:55 PM 66.7 °F - 45.3 °F 46% 30.25 in 5.0 mi NNW 19.6 mph 28.8 mph N/A   Haze
11:15 PM 66.2 °F - 45.5 °F 47% 30.25 in 7.0 mi North 20.7 mph 26.5 mph N/A   Overcast
11:35 PM 65.3 °F - 44.6 °F 47% 30.25 in 7.0 mi North 21.9 mph 31.1 mph N/A   Overcast
11:55 PM 64.8 °F - 44.2 °F 47% 30.26 in 7.0 mi North 21.9 mph 27.6 mph N/A   Overcast